BREEZE-M R/B, 33375

Orbit data source: Space-Track

BREEZE-M R/B, 33375 is space debris in HEO originally from a launch on Fri, 19 Sep 2008 UTC launched from the Tyuratam Missile And Space Complex (TTMTR). Debris objects in space refer to the collection of defunct objects orbiting the Earth. Examples of debris include non-operational satellites, rocket bodies, and fragments generated from explosions, collisions, or faulty payload assembly.

Loading next visibility...
Identifier
33375, 2008-044C
Orbit
HEO
Last TLE update
2 days ago
Origin
Manufacturer
Khrunichev
Mission
Spacecraft
Bus & Motor
BRIZ, Unknown motor
Mass
~1,600 kg wet, 1,600 kg dry
Launch date (UTC)
2008-09-19 (17 years ago)
Launch vehicle
Unknown
Launch site
Tyuratam Missile And Space Complex (TTMTR)
Object type
Payload
Rocket body
Debris
Shape & HBR
Cyl, 4 m
Radar Cross Section
14.451 m², Large (>1 m²)

Expand to show TLE details & history

TLE from 2 days ago
0 BREEZE-M R/B
1 33375U 08044C   25127.64601817 -.00000509  00000-0  00000+0 0  9991
2 33375  12.7219  16.3624 5974575 193.1163 139.1121  2.03676915123736
Epoch: 2025-05-07T15:30Z
Definitive object data (Epoch: 2025-05-07T15:30:15.969Z)
Latitude
-0.00001°
Longitude
-81.9566°
Altitude
34,056.389 km
Speed
2.134 km/s
True Right ascension
01h 05m 21s
True Declination
0° 00' 00"
Sunlit
Object was in daylight at TLE epoch
Visualization TLE readout
Latitude
9.44411°
Longitude
-34.91532°
Altitude
27,021.005 km
Speed
2.951 km/s
Apparent Right ascension
04h 23m 45s
Apparent Declination
2° 50' 35"
Sunlit
Object is in daylight
Visualization observer readout
Local Sidereal Time
03:13:46
Azimuth
152.346° SSE
Elevation
49.677°
Doppler factor
1
Orbital elements
Apogee altitude
35,622.252 km
Perigee altitude
4,205.52 km
Semi-major axis
26,292.023 km
Eccentricity
0.5974575
Inclination
12.7219°
RAAN
16.3624°
Arg. of periapsis
193.1163°
True anomaly
166.81884°
Mean anomaly
139.1121°
Eccentric anomaly
154.07698°
Mean motion
0.5091 °/min
BSTAR
Unknown
Orbital period
707.12 mins
Loading maneuver chart data...
Loading SW <> Apogee altitude chart data...
Loading historical data...
Loading historical data...
Loading historical data...
Loading historical data...
Loading historical data...
Loading historical data...
Loading historical data...
Other satellites on launch #44 in the year 2008 (2008-09-19 UTC)

BREEZE-M R/B Visibility forecast

Observer location: undefined°, undefined°

Span
Click to sort rows by Start time (UTC) header in descending order
Start Az.
Max El. time (UTC)
Max El. Az.
Max El.
End time (UTC)
End Az.
131 mins2025-05-09 19:02:51.649Z152.361° SSE2025-05-09 19:18:51.649Z151.516° SSE37.363°2025-05-09 21:13:51.649Z106.306° ESE
530 mins2025-05-10 10:12:51.649Z176.612° S2025-05-10 18:47:51.649Z142.757° SSE36.203°2025-05-10 19:02:51.649Z141.466° SSE
|